Погода в Тартусе

Сирия     34°52′37″N   35°53′46″E
темп.,
°C
ветер,
м/с
пор.,
м/с
влажн.,
%
обл.,
%
осадки,
мм/ч
давл.,
гПа
погр.,
м
19 апреля, пн
пн1900:00+24в322897 0.0 101613
03:00+24всв3324100 0.0 101417
06:00+24в4330100 0.0 101323
09:00+30в2337100 0.0 101393
12:00+32з132781 0.0 1012424
15:00+31ссз2328100 0.0 1012354
18:00+28св0137100 0.0 101111
21:00+26в3325100 0.0 101117
20 апреля, вт
вт2000:00+26в3224100 0.0 101013
03:00+26в222691 0.0 100812
06:00+24вюв223191 0.0 100912
09:00+27ю22363 0.0 1010284
12:00+26юз344528 0.0 1011510
15:00+25зсз33515 0.0 1011451
18:00+21сз23625 0.0 1012238
21:00+16ююв22815 0.0 101438
21 апреля, ср
ср2100:00+15ююв33886 0.0 101595
03:00+13ююв359211 0.0 1015125
06:00+13ю239315 0.0 101671
09:00+17юз356996 0.0 1018692
12:00+19юз565612 0.0 1018741
15:00+19юз565639 0.0 1017656
18:00+17ююз23635 0.0 1017449
21:00+13вюв2280100 0.0 101818
22 апреля, чт
чт2200:00+13в2276100 0.0 101817
03:00+12в2174100 0.0 101814
06:00+12всв117387 0.0 101810
09:00+17зсз2254100 0.0 1019475
12:00+20зсз434933 0.0 1018689
15:00+20зсз43470 0.0 1018588
18:00+18ссз33510 0.0 1018273
21:00+14ссв22380 0.0 101811
23 апреля, пт
пт2300:00+13св22325 0.0 101811
03:00+13св12470 0.0 101811
06:00+12св22640 0.0 101810
09:00+19ссз22455 0.0 1018387
12:00+23сз32415 0.0 1017727
15:00+22сз43532 0.0 1016506
18:00+19ссз236925 0.0 1016197
21:00+16всв12783 0.0 101611